Location: Unspecified
(0.0000°N, 0.0000°E)
Time: 18:05:22
(UTC+00:00)

STARLINK 1055 - Pass Details

Date: 22 January 2020
Orbit: 548 x 551 km, 53.0° (Epoch: 17 January)

Event Time Altitude Azimuth Distance (km) Brightness Sun altitude
Rises 04:35:06 0° 207° (SSW) 2,711 7.1 -22.6°
Reaches altitude 10° 04:37:21 10° 203° (SSW) 1,816 6.2 -22.0°
Maximum altitude 04:41:24 56° 124° (SE) 652 4.2 -21.1°
Drops below altitude 10° 04:45:26 10° 45° (NE) 1,808 6.5 -20.2°
Sets 04:47:41 0° 41° (NE) 2,698 7.4 -19.6°
